Terminal Aerodrome Forecast
Issued by NWS Bismarck, ND

Home | Current Version | Previous Version | Graphics & Text | Print | Product List | Glossary On
Versions: 1 2 3 4 5 6 7 8 9 10 11 12 13 14 15 16 17 18 19 20 21 22 23 24
000
FTUS43 KBIS 210520
TAFISN
TAF
KISN 210520Z 2106/2206 33015KT P6SM SCT030
     FM211100 32013KT P6SM FEW040
     FM211700 29008KT P6SM SCT250
     FM212200 24006KT P6SM SCT250
     FM212300 18005KT P6SM FEW250=

USA.gov is the U.S. government's official web portal to all federal, state and local government web resources and services.